Regional Weather Roundup
Issued by NWS

Home | Current Version | Previous Version | Graphics & Text | Print | Product List | Glossary On
Versions: 1 2 3 4 5 6 7 8 9 10 11 12 13 14 15 16 17 18 19 20 21 22 23 24 25 26 27 28 29 30 31 32 33 34 35 36 37 38 39 40 41 42 43 44 45 46 47 48 49 50
000
ASUS45 KABQ 172110
RWRNM
WEATHER ROUNDUP FOR NEW MEXICO
NATIONAL WEATHER SERVICE ALBUQUERQUE NM
300 PM MDT FRI APR 17 2015

NOTE: "FAIR" MEANS FEW OR NO CLOUDS BELOW 12,000 FEET AGL WITH NO
       SIGNIFICANT WEATHER OR OBSTRUCTIONS TO VISION.

      THIS PRODUCT IS RELEASED AS TWO VERSIONS.  ONE VERSION NEAR
      THE TOP OF THE HOUR CONTAINING PRELIMINARY DATA FROM ALBUQUERQUE
      AND OTHER STATIONS.  A FINAL VERSION WITH ADDITIONAL DATA IS
      ISSUED ABOUT 10 MINUTES AFTER THE HOUR.

NMZ501-503-504-510>518-172200-
NORTHWEST PLATEAU/NORTHCENTRAL MOUNTAINS

CITY           SKY/WX    TMP DP  RH WIND       PRES   REMARKS
FARMINGTON     SUNNY     46  20  35 W17       30.04F
LOS ALAMOS     CLOUDY    45   2  17 W13       30.01R
SANTA FE       PTSUNNY   51   6  16 W15G22    30.01F
ANGEL FIRE     FAIR      40   9  28 W16G25    29.99F WCI  31

$$
NMZ402-403-502-505>509-172200-
WESTCENTRAL MOUNTAINS/SOUTHWEST MOUNTAINS

CITY           SKY/WX    TMP DP  RH WIND       PRES   REMARKS
GALLUP         CLOUDY    46  15  28 W16G22    30.05F
GRANTS         CLOUDY    45  14  28 W5G20     30.06S
SILVER CITY      N/A     59   7  12 W13G29    30.04F

$$
NMZ407-409-411-412-172200-
SOUTHERN DESERTS

CITY           SKY/WX    TMP DP  RH WIND       PRES   REMARKS
LORDSBURG      FAIR      64   9  11 W12G24    30.01F
DEMING         SUNNY     67   7   9 W16G25    30.00F
LAS CRUCES     SUNNY     67   8  10 SW13G25   30.01F
HOLLOMAN AFB   MOSUNNY   65   0   7 SW7       29.98F
ALAMOGORDO     SUNNY     64   3   9 CALM      30.00F
T OR C         SUNNY     62  10  13 VRB7      29.97F

$$
NMZ519>523-172200-
CENTRAL VALLEYS/CENTRAL HIGHLANDS

CITY           SKY/WX    TMP DP  RH WIND       PRES   REMARKS
ALBUQUERQUE    PTSUNNY   54  14  20 SW16      30.03F
DOUBLE EAGLE   PTSUNNY   50  18  27 SW16G23   30.03F
MORIARTY ARPT  MOCLDY    52   6  15 S8G24     30.03F
CLINES CORNERS PTSUNNY   48  11  22 W13G28    30.02F
BELEN          FAIR      56  13  19 S12       30.01F
SOCORRO        FAIR      59  16  18 SE10G18   30.00F

$$
NMZ524>526-539-540-172200-
SOUTHCENTRAL MOUNTAINS

CITY           SKY/WX    TMP DP  RH WIND       PRES   REMARKS
RUIDOSO        SUNNY     54   1  12 SW25G33   30.04F

$$
NMZ527>531-172200-
NORTHEAST HIGHLANDS/NORTHEAST PLAINS

CITY           SKY/WX    TMP DP  RH WIND       PRES   REMARKS
LAS VEGAS      MOSUNNY   49  11  21 W22G37    30.00R
RATON          CLOUDY    53  11  18 S22G30    29.90F
CLAYTON        SUNNY     64   8  11 S22G29    29.92F

$$
NMZ532>537-172200-
EASTCENTRAL PLAINS

CITY           SKY/WX    TMP DP  RH WIND       PRES   REMARKS
TUCUMCARI      SUNNY     68   4   8 SW16G31   29.92F
CANNON AFB     SUNNY     65  10  11 SW17      29.95F
CLOVIS AIRPORT   N/A     66  14  13 SW10G23   29.95F

$$
NMZ028-029-538-172200-
SOUTHEAST PLAINS

CITY           SKY/WX    TMP DP  RH WIND       PRES   REMARKS
ROSWELL        SUNNY     69  18  14 VRB5      29.92F
ARTESIA        SUNNY     73  14  10 SW22G31   29.92F
CARLSBAD       SUNNY     75  24  15 SE7       29.92F
HOBBS          SUNNY     72  28  20 SW13G22   29.96F


$$


USA.gov is the U.S. government's official web portal to all federal, state and local government web resources and services.